[[{"header":{"parameterUnit":"m.s-1","parameterCategory":1,"la1":30.2992,"la2":30.254,"lo1":-89.0895,"lo2":-89.0443,"dy":0.0025,"dx":0.0025,"nx":19,"ny":19,"refTime":"2026-04-21T03:00:00:Z","depth":0,"parameterNumber":2,"parameterNumberName":"U-component_of_WINDS"},"data":[0,0,0,-1.7046,-1.7049,-1.7204,-1.7204,-1.7404,-1.7406,0,0,0,0,0,0,0,0,0,0,0,-1.7,-1.7002,-1.7045,-1.7049,-1.7204,-1.7204,-1.7404,-1.7406,0,0,0,0,0,0,0,0,0,0,0,-1.7,-1.7001,-1.7003,-1.705,-1.7203,-1.7204,-1.7404,-1.7287,0,0,0,0,0,0,0,0,0,0,-1.7136,-1.7095,-1.7001,-1.7003,-1.7051,-1.7203,-1.7204,-1.7281,-1.7294,-1.7335,0,-1.7371,0,-1.7392,-1.742,-1.742,0,0,0,-1.7049,-1.7084,-1.7125,-1.7003,-1.7052,-1.7203,-1.7134,-1.7288,-1.7303,-1.7352,-1.7374,-1.7381,-1.7395,-1.7421,-1.7422,-1.7657,-1.7658,0,0,-1.7041,-1.7029,-1.7115,-1.7134,-1.7109,-1.7129,-1.7139,-1.7297,-1.732,-1.7375,-1.7386,-1.7398,-1.7422,-1.7424,-1.7656,-1.7658,0,0,0,-1.7016,-1.7023,-1.706,-1.7126,-1.7154,-1.7134,-1.7145,-1.7313,-1.7326,-1.7388,-1.7401,-1.7423,-1.7426,-1.7655,-1.7657,-1.77,0,0,0,-1.7011,-1.7009,-1.7056,-1.7051,-1.7151,-1.7235,-1.7157,-1.7315,-1.7333,-1.74,-1.7424,-1.7428,-1.7654,-1.7656,-1.7696,-1.7722,0,0,0,-1.699,-1.7006,-1.7028,-1.705,-1.7115,-1.7233,-1.7255,-1.7319,-1.7341,-1.7421,-1.7428,-1.7653,-1.7656,-1.7692,-1.7717,-1.7781,0,0,0,-1.6965,-1.7065,-1.7029,-1.7145,-1.7114,-1.7257,-1.7254,-1.7361,-1.7435,-1.7425,-1.7654,-1.7657,-1.7691,-1.7714,-1.7778,-1.7834,-1.7856,0,0,-1.7084,-1.7079,-1.7148,-1.7121,-1.7267,-1.7234,-1.7388,-1.7467,-1.7486,-1.7599,-1.7605,-1.7697,-1.7717,-1.7781,-1.7982,-1.7999,0,0,0,-1.7182,-1.7232,-1.7273,-1.7341,-1.7403,-1.7459,-1.7515,-1.7544,-1.7641,-1.7541,-1.7737,-1.7749,-1.7788,-1.7815,-1.783,-1.7864,-1.7669,-1.7668,-1.7668,-1.7335,-1.7353,-1.7469,-1.7505,-1.7572,-1.7628,-1.7684,-1.7733,-1.7733,-1.7779,-1.7813,-1.7933,-1.7965,-1.7976,-1.8011,-1.7843,-1.7843,-1.7844,-1.7844,-1.7513,-1.7587,-1.7582,-1.7693,-1.7712,-1.7806,-1.7864,-1.786,-1.7951,-1.7908,-1.7943,-1.7896,-1.7994,-1.8026,-1.7847,-1.7847,-1.7846,-1.7846,-1.7846,-1.7617,-1.7655,-1.7688,-1.7788,-1.7863,-1.7897,-1.7984,-1.7997,-1.8011,-1.8045,-1.8084,-1.8083,-1.8085,-1.8062,-1.8063,-1.8063,-1.8063,-1.8064,-1.8064,-1.7712,-1.7747,-1.7818,-1.7891,-1.7937,-1.7998,-1.8055,-1.8101,-1.8155,-1.8159,-1.8159,-1.8155,-1.8,-1.7961,-1.807,-1.8069,-1.8068,-1.8068,-1.8067,-1.7889,-1.785,-1.7961,-1.8006,-1.8093,-1.8167,-1.8182,-1.8274,-1.8313,-1.8356,-1.8344,-1.8227,-1.8223,-1.8211,-1.818,-1.8339,-1.8339,-1.8339,-1.8339,-1.7977,-1.7975,-1.8091,-1.8163,-1.8235,-1.8259,-1.8384,-1.843,-1.8471,-1.8496,-1.8475,-1.8434,-1.8421,-1.8425,-1.8408,-1.8379,-1.8586,-1.8586,-1.8586,-1.8087,-1.8093,-1.8197,-1.8235,-1.8303,-1.8362,-1.848,-1.8564,-1.8602,-1.8597,-1.8517,-1.8507,-1.844,-1.8418,-1.8412,-1.8386,-1.8333,0,0]},{"header":{"parameterUnit":"m.s-1","parameterCategory":1,"la1":30.2992,"la2":30.254,"lo1":-89.0895,"lo2":-89.0443,"dy":0.0025,"dx":0.0025,"nx":19,"ny":19,"refTime":"2026-04-21T03:00:00:Z","depth":0,"parameterNumber":3,"parameterNumberName":"V-component_of_WINDS"},"data":[0,0,0,-2.7085,-2.7086,-2.7131,-2.7132,-2.7197,-2.7198,0,0,0,0,0,0,0,0,0,0,0,-2.7078,-2.7079,-2.7085,-2.7086,-2.7131,-2.7132,-2.7197,-2.7198,0,0,0,0,0,0,0,0,0,0,0,-2.7078,-2.7079,-2.708,-2.7087,-2.7131,-2.7132,-2.7197,-2.716,0,0,0,0,0,0,0,0,0,0,-2.7115,-2.7115,-2.7079,-2.708,-2.7087,-2.7131,-2.7132,-2.7158,-2.7162,-2.7181,0,-2.72,0,-2.72,-2.7203,-2.7203,0,0,0,-2.7081,-2.7111,-2.7118,-2.708,-2.7087,-2.7131,-2.711,-2.716,-2.7165,-2.7187,-2.7201,-2.7203,-2.7202,-2.7204,-2.7204,-2.7331,-2.7331,0,0,-2.7079,-2.709,-2.7115,-2.7121,-2.7116,-2.7108,-2.7111,-2.7163,-2.7179,-2.7202,-2.7205,-2.7203,-2.7204,-2.7205,-2.733,-2.7331,0,0,0,-2.7075,-2.7088,-2.7093,-2.7119,-2.7126,-2.711,-2.7113,-2.7177,-2.7178,-2.7205,-2.7203,-2.7205,-2.7206,-2.7329,-2.733,-2.7381,0,0,0,-2.7073,-2.7086,-2.7092,-2.7099,-2.7126,-2.7153,-2.7126,-2.7174,-2.718,-2.7203,-2.7205,-2.7206,-2.7328,-2.733,-2.7378,-2.7404,0,0,0,-2.7073,-2.7086,-2.7095,-2.71,-2.712,-2.7151,-2.7155,-2.7175,-2.7179,-2.7203,-2.7206,-2.7327,-2.7329,-2.7375,-2.7399,-2.744,0,0,0,-2.7076,-2.714,-2.7096,-2.7166,-2.7119,-2.7183,-2.7155,-2.7201,-2.7229,-2.7205,-2.7328,-2.733,-2.7374,-2.7396,-2.7437,-2.7476,-2.7494,0,0,-2.7162,-2.7151,-2.7191,-2.7153,-2.7227,-2.7175,-2.7257,-2.7272,-2.7264,-2.7308,-2.7311,-2.7379,-2.7398,-2.7439,-2.7589,-2.7603,0,0,0,-2.7222,-2.7251,-2.7269,-2.7295,-2.7308,-2.7321,-2.7322,-2.7327,-2.7365,-2.7289,-2.7405,-2.7416,-2.7439,-2.7458,-2.747,-2.7489,-2.7339,-2.7339,-2.7339,-2.736,-2.7347,-2.7412,-2.7404,-2.743,-2.743,-2.745,-2.7456,-2.7436,-2.7463,-2.7476,-2.7569,-2.7591,-2.76,-2.762,-2.7496,-2.7496,-2.7496,-2.7496,-2.7486,-2.7525,-2.7494,-2.7547,-2.7532,-2.7576,-2.7577,-2.7561,-2.7599,-2.7558,-2.7578,-2.7534,-2.7615,-2.7632,-2.75,-2.7499,-2.7499,-2.7499,-2.7498,-2.7575,-2.7591,-2.7596,-2.7633,-2.7662,-2.765,-2.7688,-2.7673,-2.7659,-2.7678,-2.769,-2.7689,-2.7686,-2.7685,-2.7685,-2.7686,-2.7686,-2.7686,-2.7686,-2.7666,-2.767,-2.7704,-2.7722,-2.7736,-2.7753,-2.7752,-2.7766,-2.7776,-2.7762,-2.7762,-2.7738,-2.7626,-2.7598,-2.7691,-2.769,-2.769,-2.7689,-2.7689,-2.7798,-2.7765,-2.7818,-2.7832,-2.7851,-2.788,-2.786,-2.7888,-2.7897,-2.7916,-2.7887,-2.7807,-2.7793,-2.7784,-2.776,-2.789,-2.789,-2.789,-2.789,-2.7874,-2.7865,-2.7914,-2.7938,-2.7959,-2.7946,-2.8004,-2.8003,-2.7997,-2.8002,-2.798,-2.7948,-2.7939,-2.7931,-2.7918,-2.7896,-2.8058,-2.8058,-2.8058,-2.7954,-2.7947,-2.8,-2.7994,-2.8007,-2.8018,-2.8072,-2.8099,-2.8086,-2.8064,-2.8004,-2.7997,-2.7945,-2.7929,-2.7907,-2.7888,-2.7847,0,0]}]]